Rbgn^[z[y[W
メイン
   新天体発見情報
     Comet P/2017 D4 (PANSTARRS)
投稿するにはまず登録を

スレッド表示 | 新しいものから 前のトピック | 次のトピック | 下へ
投稿者 スレッド
佐藤裕久
投稿日時: 2017-3-9 0:02
モデレータ
登録日: 2005-6-12
居住地: 日本
投稿: 1786
オンライン
Comet P/2017 D4 (PANSTARRS)

Eva Lilly, Richard WainscoatとRob Werykの通報によると、2月25日、Haleakalaにある1.8-m Pan-STARRS1
望遠鏡で得た画像から彗星を発見した。
この天体は、隣接する恒星を基準にしてソフトな核状集光の外観(半値全幅(FWHM)は1".7で、比較した隣接
する恒星は1".1)で、尾は北におよそ4"伸びている。
小惑星センターのPCCP webpageに公表後、佐藤英貴氏(東京都文京区, iTelescope天文台,2月27.57日UT, 
0.43-m f/6.8 アストログラフ+輝度フィルター, Siding Spring, 遠隔操作:強い集光した6"のコマがあり、
尾はない。3".7の円形範囲で測定したこの彗星のw-バンド光度は20.0等であった)によって観測された。

発見位置は次のとおり、

     2017 UT             R.A. (2000) Decl.       Mag.
     Feb. 25.43687   10 26 36.90   - 5 52 23.5   20.6
          25.44929   10 26 36.43   - 5 52 21.6   20.8
          25.46170   10 26 35.97   - 5 52 19.8   20.7
          25.47410   10 26 35.51   - 5 52 17.9   20.7

楕円軌道要素と位置推算表は次のとおり、

Orbital elements:
    P/2017 D4 (PANSTARRS)
Epoch 2016 Sept. 9.0 TT = JDT 2457640.5
T 2016 Sept. 6.51985 TT                                 MPCW
q   2.7536698            (2000.0)            P               Q
n   0.04874939     Peri.  209.74184     -0.42802292     -0.88584909
a   7.4214697      Node   266.11097     +0.86057572     -0.33896426
e   0.6289590      Incl.   10.33994     +0.27605401     -0.31681953
P  20.22
>From 41 observations 2017 Jan. 20-Feb. 28, mean residual 0".4.

Ephemeris:
    P/2017 D4 (PANSTARRS)
Date    TT    R. A. (2000) Decl.     Delta      r     Elong.  Phase   m1
2017 01 30    10 40 46.0 -06 06 41   2.1451  2.9965   143.7    11.2  19.4
...
2017 02 14    10 33 19.7 -06 12 17   2.1076  3.0453   157.9     7.0  19.5
...
2017 02 22    10 28 39.1 -06 00 16   2.1111  3.0727   163.6     5.2  19.5
...
2017 02 28    10 25 06.8 -05 45 32   2.1251  3.0939   165.4     4.6  19.5
2017 03 01    10 24 32.1 -05 42 41   2.1284  3.0975   165.4     4.6  19.6
2017 03 02    10 23 57.7 -05 39 44   2.1320  3.1011   165.4     4.6  19.6
...
2017 03 08    10 20 40.1 -05 20 09   2.1594  3.1229   163.2     5.3  19.6
...
2017 03 16    10 16 50.9 -04 50 34   2.2108  3.1528   157.5     6.9  19.7
...
2017 03 31    10 12 13.0 -03 52 39   2.3505  3.2109   143.7    10.6  19.9

(CBET 4368、MPEC 2017-E07)

スレッド表示 | 新しいものから 前のトピック | 次のトピック | トップ

投稿するにはまず登録を
 
© 1999-2013 Tsutomu Seki.